EW2734 Weather Reports


time (UTC)temp
F
wind
direction
speed
knots
gust
knots
rain 1hr
in
rain 24hr
in
rain mn
in
humidity
%
barometer
mb
20260507113014 36 238 2.6 6.1 0.00 0.08 0.01 93 1019.6
20260507111506 36 238 2.6 6.1 0.00 0.08 0.01 93 1019.6
20260507110002 37 235 2.6 7.0 0.00 0.08 0.01 92 1019.7
20260507104559 37 219 1.7 6.1 0.00 0.08 0.01 92 1019.7
20260507103055 37 243 0.9 5.2 0.01 0.08 0.01 93 1019.8
20260507101600 37 222 0.0 1.7 0.01 0.08 0.01 92 1019.9
20260507100051 38 230 0.0 1.7 0.01 0.08 0.01 93 1020.0
20260507094550 38 261 0.0 1.7 0.01 0.08 0.01 93 1020.1
20260507093050 37 249 0.0 0.0 0.00 0.07 0.00 93 1020.2
20260507091549 38 260 0.0 0.9 0.00 0.07 0.00 93 1020.4
20260507090047 38 243 0.0 0.0 0.00 0.07 0.00 93 1020.5
20260507084553 39 250 0.0 0.9 0.00 0.08 0.00 92 1020.8
20260507083040 39 229 0.0 0.9 0.00 0.08 0.00 92 1020.7
20260507081540 40 244 0.0 1.7 0.00 0.08 0.00 93 1020.9
20260507080036 40 268 0.0 0.9 0.00 0.08 0.00 93 1021.2
20260507074531 40 259 0.0 0.0 0.00 0.12 0.00 94 1021.2
20260507073029 41 251 0.0 0.0 0.00 0.12 0.00 94 1021.4
20260507071529 41 248 0.0 0.0 0.00 0.12 0.00 93 1021.4
20260507070031 41 240 0.0 0.0 0.00 0.12 0.00 94 1021.6
20260507064525 41 259 0.0 0.0 0.00 0.17 0.00 94 1021.7
20260507063023 41 264 0.0 0.0 0.00 0.17 0.00 93 1021.8
20260507061521 42 264 0.0 0.0 0.00 0.17 0.00 94 1021.8
20260507060018 42 269 0.0 0.0 0.00 0.17 0.00 93 1022.1
20260507054521 43 274 0.0 0.0 0.00 0.32 0.00 93 1022.0
20260507053014 44 263 0.0 0.0 0.00 0.32 0.00 93 1022.0
20260507051512 44 277 0.0 0.0 0.00 0.32 0.00 93 1022.0
20260507050009 45 281 0.0 0.0 0.00 0.32 0.00 93 1022.0
20260507044509 45 272 0.0 0.0 0.00 0.37 0.32 93 1022.1
20260507043019 45 282 0.0 0.0 0.00 0.37 0.32 93 1022.2
20260507041507 45 271 0.0 0.0 0.00 0.37 0.32 93 1022.4
20260507040010 45 274 0.0 0.0 0.01 0.37 0.32 92 1022.1
20260507034505 45 263 0.0 0.0 0.01 0.37 0.32 92 1022.0
20260507033006 45 245 0.0 0.0 0.01 0.37 0.32 92 1022.2
20260507031504 46 291 0.0 0.9 0.04 0.37 0.32 92 1021.9
20260507030003 46 281 0.0 0.0 0.05 0.36 0.31 91 1021.7
20260507024608 46 288 0.0 0.0 0.06 0.36 0.31 90 1021.3
20260507023058 46 314 0.0 0.0 0.06 0.36 0.31 90 1020.9
20260507021601 46 304 0.0 0.0 0.03 0.33 0.28 89 1020.9
20260507020112 47 326 0.0 0.0 0.01 0.31 0.26 85 1020.8
20260507014604 48 307 0.0 0.0 0.00 0.30 0.25 80 1020.8
20260507013058 48 322 0.0 0.0 0.00 0.30 0.25 79 1020.4
20260507011553 49 332 0.0 0.0 0.00 0.30 0.25 78 1020.0
20260507010056 49 339 0.0 0.0 0.00 0.30 0.25 77 1020.0
20260507004601 49 344 0.0 0.0 0.00 0.30 0.25 75 1019.7
20260507003053 49 7 0.0 0.0 0.00 0.30 0.25 72 1019.5
20260507001552 49 356 0.0 0.0 0.00 0.30 0.25 73 1019.8
20260507000051 50 6 0.0 0.0 0.00 0.30 0.25 71 1019.8
20260506234552 50 339 0.0 0.0 0.00 0.30 0.25 71 1019.6
20260506233102 51 16 0.0 0.0 0.00 0.30 0.25 67 1019.3
20260506231555 51 336 0.0 0.0 0.00 0.30 0.25 67 1019.2
20260506230052 51 1 0.0 0.0 0.00 0.30 0.25 67 1019.4
20260506224551 51 217 0.0 0.0 0.00 0.30 0.25 65 1019.3
20260506223048 50 348 0.0 0.9 0.00 0.30 0.25 67 1019.5
20260506221548 51 336 0.0 0.0 0.00 0.30 0.25 67 1019.5
20260506220045 50 105 0.0 0.0 0.00 0.30 0.25 68 1019.5
20260506214543 50 360 0.0 0.0 0.00 0.30 0.25 68 1019.5
20260506213057 50 8 0.0 0.0 0.00 0.30 0.25 70 1019.5
20260506211539 49 267 0.0 0.0 0.00 0.30 0.25 70 1019.6
20260506210037 48 76 0.0 0.0 0.00 0.30 0.25 71 1019.7
20260506204536 48 72 0.0 0.0 0.00 0.30 0.25 70 1019.9
20260506203035 48 101 0.0 0.9 0.00 0.30 0.25 69 1020.0
20260506201534 48 101 0.0 0.0 0.00 0.30 0.25 68 1019.9
20260506200032 48 52 0.0 0.0 0.00 0.30 0.25 67 1019.9
20260506194532 48 113 0.0 0.9 0.00 0.30 0.25 65 1019.8
20260506193031 48 69 0.0 0.9 0.00 0.30 0.25 66 1019.9
20260506191530 48 82 0.0 0.9 0.00 0.30 0.25 67 1020.0
20260506190028 48 96 0.0 4.3 0.00 0.30 0.25 66 1020.0
20260506184541 48 76 0.0 1.7 0.00 0.30 0.25 70 1020.2
20260506183036 47 100 0.0 0.9 0.00 0.30 0.25 70 1020.5
20260506181531 48 86 0.0 2.6 0.00 0.30 0.25 71 1020.7
20260506180027 47 80 0.0 4.3 0.00 0.30 0.25 71 1020.6
20260506174524 47 44 0.0 0.9 0.00 0.30 0.25 74 1020.6
20260506173016 46 82 0.0 3.5 0.00 0.30 0.25 75 1020.5
20260506171516 46 281 0.0 0.9 0.00 0.30 0.25 79 1020.5
20260506170012 46 98 0.0 0.9 0.00 0.30 0.25 81 1020.4
20260506164510 46 68 0.0 3.5 0.00 0.30 0.25 82 1020.0
20260506163009 45 68 0.0 1.7 0.00 0.30 0.25 84 1020.0
20260506161505 45 216 0.0 0.9 0.00 0.30 0.25 86 1019.9
20260506160003 44 91 0.0 1.7 0.00 0.30 0.25 87 1019.9
20260506154604 44 20 0.0 0.0 0.00 0.30 0.25 88 1019.7
20260506153114 43 82 0.0 0.0 0.00 0.30 0.25 89 1019.7
20260506151557 43 27 0.0 0.0 0.00 0.30 0.25 90 1019.5
20260506144558 42 84 0.0 0.0 0.00 0.30 0.25 93 1019.0
20260506143055 42 79 0.0 0.0 0.00 0.30 0.25 94 1019.3
20260506141554 41 80 0.0 0.0 0.00 0.30 0.25 94 1019.6
20260506140053 41 83 0.0 0.0 0.00 0.30 0.25 94 1020.0
20260506134551 41 94 0.0 0.0 0.00 0.30 0.25 94 1019.8
20260506133049 41 75 0.0 0.0 0.00 0.30 0.25 95 1019.6
20260506131553 41 83 0.0 0.0 0.00 0.30 0.25 95 1019.3
20260506130047 40 77 0.0 0.0 0.00 0.30 0.25 95 1019.3
20260506124544 40 87 0.0 0.0 0.00 0.30 0.25 95 1018.7
20260506123041 40 60 0.0 0.0 0.00 0.30 0.25 95 1018.2
20260506121538 40 86 0.0 0.0 0.00 0.30 0.25 95 1017.9
20260506120040 40 55 0.0 0.0 0.00 0.30 0.25 95 1017.4
20260506114536 40 84 0.0 0.0 0.00 0.30 0.25 95 1017.5